Flag for Germany Weather past 2 weeks in Riesa, Saxony, Germany

Now
60 °F

Partly sunny.


Feels Like: 60 °F
Forecast: 49 / 61 °F
Wind: 2 mph from South

Location: Dresden-Klotzsche

Current Time: May 6, 2015 at 10:31:48 AM

Latest Report: May 6, 2015 at 10:00 AM


Visibility: 22 mi

Pressure: 29.93 "Hg

Humidity: 73%

Dew point: 51 °F

Location of RiesaLocation

Historic Weather in Riesa — Graph

°F

Riesa temperature yesterday

Maximum temperature yesterday: 72 °F (at 12:00 PM)
Minimum temperature yesterday: 58 °F (at 12:00 AM)
Average temperature yesterday: 65 °F

Past Weeks' High & Low Weather Summary

 TemperatureHumidityPressure
High72 °F (May 5, 12:00 PM)100% (Apr 27, 8:00 PM)30.33 "Hg (Apr 27, 8:00 PM)
Low35 °F (Apr 23, 6:00 AM)24% (Apr 21, 4:00 PM)29.50 "Hg (Apr 27, 4:00 PM)
Average54 °F68%29.91 "Hg
* Reported Apr 21 9:00 AM — May 6 9:00 AM, Riesa, Weather by CustomWeather, © 2015

Note: Actual official high and low records may vary slightly from our data, if they occured in-between our weather recording intervals... More about our weather records

Advertising

Riesa weather history for previous 24 hours

 ConditionsComfort  
Time TempWeatherWind HumidityBarometerVisibility
9:00 AM
Wed, May 6
59 °FOvercast.2 mph71%29.93 "Hg22 mi
8:00 AM58 °FOvercast.2 mph75%29.93 "Hg22 mi
7:00 AM56 °FOvercast.1 mph83%29.92 "Hg19 mi
6:00 AM56 °FOvercast.1 mph83%29.92 "Hg22 mi
4:00 AM57 °FOvercast.2 mph76%29.91 "Hg25 mi
3:00 AM58 °FLight rain. Overcast.2 mph71%29.91 "Hg25 mi
2:00 AM59 °FOvercast.3 mph68%29.88 "Hg25 mi
1:00 AM60 °FLight rain. Overcast.6 mph69%29.87 "Hg16 mi
12:00 AM63 °FLight rain. Overcast.7 mph71%29.85 "Hg19 mi
10:00 PM
Tue, May 5
65 °FOvercast.6 mph68%29.76 "Hg19 mi
9:00 PM68 °FLight rain. Overcast.6 mph67%29.75 "Hg17 mi
8:00 PM68 °FOvercast.6 mph73%29.72 "Hg28 mi
7:00 PM69 °FOvercast.5 mph80%29.70 "Hg25 mi
6:00 PM70 °FThunderstorms. Overcast.5 mph79%29.71 "Hg28 mi
5:00 PM71 °FLight rain. Overcast.6 mph74%29.69 "Hg19 mi
4:00 PM71 °FLight rain. Overcast.6 mph71%29.67 "Hg19 mi
3:00 PM71 °FLight rain. Overcast.6 mph68%29.67 "Hg25 mi
2:00 PM71 °FLight rain. Overcast.6 mph67%29.67 "Hg22 mi
1:00 PM71 °FLight rain. Overcast.8 mph67%29.67 "Hg22 mi
12:00 PM72 °FOvercast.9 mph66%29.66 "Hg16 mi
10:00 AM66 °FOvercast.9 mph77%29.66 "Hg19 mi
Weather by CustomWeather, © 2015

See weather overviewHow to use our weather pages